Consulta los datos en tiempo real de la estación meteorológica de Montseny - Mas Joan
| Hora UTC | 04:00 |
|---|---|
| Temperatura | 10.3 ºC |
| Humedad | 75.5 % |
| Pluja | 0.2 mm |
| Velocidad viento | 6.9 km/h |
| Dirección viento | NW |
| Radiación solar | 0.0 W/m² |
| Temperatura (ºC) | Humedad (%) | Velocidad viento (km/h) | Precipitación (mm) | Radiación solar (W/m²) | ||||||||||||
|---|---|---|---|---|---|---|---|---|---|---|---|---|---|---|---|---|
| Hora UTC | Aire | Humedad | Vel. | Dir. | Vel. Max | Dir. | Intent. máx 5 min. | Rad. Sol. | ||||||||
| 00:05 | 10.0 | 96.4 | 3.3 | WSW | 3.9 | WSW | 0.0 | 0.0 | ||||||||
| 00:10 | 10.0 | 96.5 | 2.8 | WSW | 3.8 | WSW | 0.0 | 0.0 | ||||||||
| 00:15 | 9.9 | 96.6 | 2.5 | WSW | 3.5 | WSW | 0.0 | 0.0 | ||||||||
| 00:20 | 9.9 | 96.6 | 2.3 | WSW | 4.1 | W | 0.0 | 0.0 | ||||||||
| 00:25 | 9.9 | 96.6 | 2.3 | WSW | 3.3 | WSW | 0.0 | 0.0 | ||||||||
| 00:30 | 9.7 | 96.5 | 2.4 | WSW | 4.1 | W | 0.0 | 0.0 | ||||||||
| 00:35 | 9.6 | 96.4 | 3.0 | W | 4.0 | W | 0.0 | 0.0 | ||||||||
| 00:40 | 9.4 | 96.4 | 3.3 | W | 4.1 | W | 0.0 | 0.0 | ||||||||
| 00:45 | 9.3 | 96.5 | 3.2 | WSW | 4.0 | WSW | 0.0 | 0.0 | ||||||||
| 00:50 | 9.3 | 96.5 | 3.6 | WSW | 4.5 | W | 0.0 | 0.0 | ||||||||
| 00:55 | 9.2 | 96.6 | 3.5 | W | 4.4 | WSW | 0.0 | 0.0 | ||||||||
| 01:00 | 9.2 | 96.7 | 2.8 | W | 4.1 | W | 0.0 | 0.0 | ||||||||
| 01:05 | 9.2 | 96.7 | 3.1 | WSW | 4.9 | W | 0.0 | 0.0 | ||||||||
| 01:10 | 9.2 | 96.7 | 3.4 | W | 5.2 | W | 0.0 | 0.0 | ||||||||
| 01:15 | 9.2 | 96.6 | 3.7 | W | 6.4 | WNW | 0.1 | 0.0 | ||||||||
| 01:20 | 9.2 | 96.5 | 3.1 | W | 5.0 | WNW | 0.0 | 0.0 | ||||||||
| 01:25 | 9.2 | 96.4 | 3.8 | W | 5.6 | WNW | 0.0 | 0.0 | ||||||||
| 01:30 | 9.2 | 96.4 | 3.3 | W | 4.4 | W | 0.0 | 0.0 | ||||||||
| 01:35 | 9.2 | 96.4 | 4.2 | W | 6.1 | WNW | 0.0 | 0.0 | ||||||||
| 01:40 | 9.1 | 96.4 | 3.4 | WSW | 4.6 | WSW | 0.0 | 0.0 | ||||||||
| 01:45 | 9.1 | 96.3 | 3.2 | WSW | 4.6 | SW | 0.0 | 0.0 | ||||||||
| 01:50 | 9.0 | 96.3 | 3.4 | W | 4.9 | W | 0.0 | 0.0 | ||||||||
| 01:55 | 9.0 | 96.3 | 3.5 | WSW | 5.6 | WNW | 0.0 | 0.0 | ||||||||
| 02:00 | 9.0 | 96.3 | 3.3 | WSW | 5.2 | WNW | 0.0 | 0.0 | ||||||||
| 02:05 | 9.1 | 96.3 | 4.7 | WNW | 9.5 | NW | 0.0 | 0.0 | ||||||||
| 02:10 | 9.2 | 95.6 | 5.5 | NW | 12.3 | N | 0.0 | 0.0 | ||||||||
| 02:15 | 9.6 | 92.3 | 7.8 | NW | 14.5 | NNW | 0.0 | 0.0 | ||||||||
| 02:20 | 10.1 | 87.4 | 7.9 | NW | 16.5 | NNW | 0.0 | 0.0 | ||||||||
| 02:25 | 10.3 | 85.3 | 9.0 | NNW | 18.6 | NNW | 0.0 | 0.0 | ||||||||
| 02:30 | 10.4 | 84.4 | 10.5 | NNW | 20.8 | N | 0.0 | 0.0 | ||||||||
| 02:35 | 10.7 | 82.2 | 7.2 | NW | 16.1 | NW | 0.0 | 0.0 | ||||||||
| 02:40 | 10.6 | 82.9 | 6.4 | NW | 13.4 | N | 0.0 | 0.0 | ||||||||
| 02:45 | 10.7 | 81.7 | 7.3 | NNW | 16.4 | N | 0.1 | 0.0 | ||||||||
| 02:50 | 10.6 | 82.5 | 6.0 | NW | 11.8 | W | 0.0 | 0.0 | ||||||||
| 02:55 | 10.6 | 81.9 | 4.2 | NW | 12.4 | NW | 0.0 | 0.0 | ||||||||
| 03:00 | 10.5 | 81.5 | 4.3 | WNW | 13.3 | NW | 0.0 | 0.0 | ||||||||
| 03:05 | 10.4 | 80.8 | 5.0 | NW | 13.1 | NW | 0.0 | 0.0 | ||||||||
| 03:10 | 10.6 | 77.6 | 5.8 | NW | 14.5 | WNW | 0.0 | 0.0 | ||||||||
| 03:15 | 10.8 | 75.8 | 5.4 | NW | 13.7 | NW | 0.0 | 0.0 | ||||||||
| 03:20 | 10.5 | 76.9 | 4.0 | NW | 9.4 | WSW | 0.0 | 0.0 | ||||||||
| 03:25 | 10.3 | 79.4 | 3.7 | W | 8.7 | NW | 0.0 | 0.0 | ||||||||
| 03:30 | 10.0 | 79.6 | 3.9 | WNW | 12.7 | NW | 0.0 | 0.0 | ||||||||
| 03:35 | 10.0 | 79.3 | 3.5 | WNW | 6.7 | WNW | 0.0 | 0.0 | ||||||||
| 03:40 | 10.3 | 77.0 | 3.8 | WNW | 10.8 | WNW | 0.0 | 0.0 | ||||||||
| 03:45 | 10.2 | 77.8 | 2.7 | WNW | 5.1 | NW | 0.0 | 0.0 | ||||||||
| 03:50 | 9.9 | 79.2 | 3.6 | WNW | 9.9 | NW | 0.0 | 0.0 | ||||||||
| 03:55 | 10.1 | 77.0 | 5.4 | WNW | 10.6 | N | 0.0 | 0.0 | ||||||||
| 04:00 | 10.3 | 75.5 | 6.9 | NW | 14.8 | N | 0.0 | 0.0 | ||||||||
| Máxima | 10.8 | 96.7 | 10.5 | NNW | 20.8 | N | 0.1 | 0.0 | ||||||||
| Mínima | 9.0 | 75.5 | ||||||||||||||
| Total | 0.2 | |||||||||||||||